Simultaneous Nadir Overpasses (SNOs) Predictions

Prediction of SNOs between GOES-16 and NOAA-20 Satellite Orbit:

Table of predicted SNOs for the next 14.0 days since TLE Epoch: 2/28/2020
Index Date Time (GOES-16) GOES-16 Lat,Lon NOAA-20 Lat,Lon Distance(km) Time Diff (sec)
1 02/29/2020 06:45:12 0.05, -75.16 1.02, -79.50 494.88 80
2 03/01/2020 06:23:48 0.05, -75.17 0.03, -74.97 22.13 80
3 03/03/2020 18:27:01 -0.06, -75.18 -0.20, -75.74 63.89 80
4 03/04/2020 18:10:57 -0.06, -75.19 0.86, -71.22 453.30 80
5 03/06/2020 06:32:46 0.06, -75.20 0.34, -76.48 146.43 80
6 03/07/2020 06:11:21 0.06, -75.21 -0.66, -71.95 370.83 80
7 03/08/2020 18:33:18 -0.07, -75.22 -0.50, -77.26 231.47 80
8 03/09/2020 18:17:14 -0.07, -75.24 0.49, -72.72 286.27 80
9 03/11/2020 06:39:02 0.07, -75.25 0.70, -77.99 312.27 80
10 03/12/2020 06:17:39 0.07, -75.27 -0.35, -73.47 205.75 80
11 03/13/2020 18:39:35 -0.07, -75.30 -0.86, -78.76 395.59 80




NCC Satellite Simultaneous Nadir Overpasses (SNOs) Prediction Service
